Location: Unspecified
(51.5147°N, 7.4673°E)
Time: 21:56:48
(UTC+01:00)

Courier 1B - All Passes

Search period start: 18 February 2026 00:00
Search period end: 28 February 2026 00:00
Orbit: 962 x 1208 km, 28.3° (Epoch: 18 February)

Date Brightness Start Highest point End Pass type
(mag) Time Alt. Az. Time Alt. Az. Time Alt. Az.
18 Feb - 21:52:58 10° SSW 21:54:57 11° S 21:56:56 10° SSE visible
19 Feb - 20:59:59 10° S 21:01:22 11° S 21:02:46 10° SSE visible
20 Feb - 21:59:26 10° SSW 22:00:18 10° S 22:01:09 10° S visible
21 Feb - 21:05:31 10° SSW 21:06:43 10° S 21:07:57 10° S visible
22 Feb - 20:12:31 10° S 20:13:11 10° S 20:13:50 10° S visible
